[[{"header":{"parameterUnit":"m.s-1","parameterCategory":1,"la1":30.2991,"la2":30.254,"lo1":-89.0895,"lo2":-89.0444,"dy":0.0017,"dx":0.0017,"nx":28,"ny":28,"refTime":"2025-04-10T21:00:00:Z","depth":0,"parameterNumber":2,"parameterNumberName":"U-component_of_WINDS"},"data":[0,0,0,0,0,0,0,0,0,0,0,0,0,0,0,0,0,0,0,0,0,0,0,0,0,0,0,0,0,0,0,0,0,0,0,0,0,0,0,0,0,0,0,0,0,0,0,0,0,0,0,0,0,0,0,0,0,0,0.0534,0.0535,0,0.0561,0.0561,0.0562,0.0614,0.0615,0.0616,0.0617,0.0642,0.0642,0.0642,0,0,0,0,0,0,0,0,0,0,0,0,0,0.0528,0.0528,0.0534,0.0535,0.0535,0.0561,0.0561,0.0562,0.0614,0.0615,0.0616,0.0617,0.0642,0.0642,0.0642,0,0,0,0,0,0,0,0,0,0,0,0,0,0.054,0.0528,0.0534,0.0564,0.0567,0.0561,0.0561,0.0562,0.0613,0.0615,0.0616,0.0618,0.0643,0.0642,0.0642,0.0608,0,0,0.064,0.064,0,0,0,0,0,0,0,0,0.0539,0.054,0.0559,0.0562,0.0565,0.0586,0.0569,0.0577,0.0613,0.0596,0.0617,0.0619,0.0622,0.0624,0.0625,0.061,0.0611,0.064,0.064,0.064,0.064,0,0,0,0,0,0,0,0.0538,0.0539,0.0545,0.056,0.0563,0.0576,0.0579,0.0571,0.06,0.0597,0.0601,0.0604,0.0624,0.0625,0.0626,0.0611,0.064,0.064,0.064,0.064,0.057,0.0569,0,0,0,0,0,0,0.0533,0.0538,0.0544,0.0546,0.0556,0.0575,0.0579,0.0578,0.06,0.0605,0.0602,0.0606,0.0625,0.0626,0.0627,0.0589,0.064,0.064,0.0639,0.0572,0.057,0.0568,0,0,0,0,0,0,0.0533,0.0533,0.0543,0.0543,0.0545,0.0573,0.0572,0.0577,0.0579,0.0604,0.0609,0.0598,0.0627,0.0628,0.0613,0.0591,0.0639,0.0639,0.0574,0.0571,0.0569,0.0514,0,0,0,0,0,0,0.0533,0.0533,0.052,0.0543,0.0545,0.0528,0.057,0.0577,0.0578,0.0583,0.0602,0.0606,0.0628,0.0613,0.0612,0.0591,0.0639,0.0576,0.0573,0.057,0.0517,0.051,0.0503,0,0,0,0,0,0.0532,0.0503,0.052,0.052,0.053,0.0527,0.0528,0.0554,0.0576,0.0564,0.058,0.0605,0.0594,0.0611,0.0611,0.0589,0.0577,0.0574,0.057,0.0521,0.0511,0.0503,0,0,0,0,0,0,0.0477,0.0506,0.0525,0.0502,0.0512,0.0536,0.052,0.0543,0.0546,0.0551,0.0583,0.0587,0.0567,0.0577,0.0596,0.0559,0.059,0.0586,0.0552,0.0543,0.0536,0.0533,0.0638,0,0,0,0,0,0.0462,0.0457,0.0483,0.0461,0.0465,0.0492,0.0491,0.0511,0.0522,0.0526,0.0541,0.055,0.0549,0.0547,0.0547,0.052,0.0525,0.0505,0.0498,0.0492,0.0487,0.0474,0.0466,0.0557,0.0557,0.0557,0,0,0.0431,0.0447,0.0441,0.045,0.046,0.0453,0.0495,0.0486,0.0482,0.0524,0.0511,0.0523,0.0536,0.0514,0.0506,0.0522,0.0464,0.0487,0.0482,0.0481,0.0469,0.0461,0.0453,0.0554,0.0555,0.0555,0,0,0.0371,0.0383,0.0365,0.0375,0.0389,0.0408,0.0404,0.0425,0.0434,0.0422,0.0454,0.045,0.0447,0.0454,0.0458,0.0403,0.0427,0.0403,0.0364,0.035,0.0343,0.0337,0.0317,0.0309,0.0399,0.0399,0.0399,0,0.033,0.0322,0.0353,0.0343,0.0346,0.0386,0.0368,0.0376,0.0389,0.039,0.0409,0.0406,0.0418,0.0399,0.0386,0.0388,0.0384,0.0399,0.0342,0.0336,0.033,0.0312,0.0304,0.0396,0.0396,0.0396,0.0397,0,0.0271,0.0266,0.025,0.0263,0.0264,0.025,0.0279,0.0277,0.0297,0.0314,0.0302,0.0317,0.0321,0.0319,0.0338,0.0303,0.0313,0.0336,0.0368,0.0318,0.0301,0.0294,0.0391,0.0392,0.0393,0.0394,0,0,0.0174,0.0206,0.0199,0.0206,0.0226,0.0222,0.0211,0.0216,0.0213,0.0222,0.0213,0.0211,0.0233,0.0237,0.0258,0.0247,0.0202,0.0272,0.0273,0.0257,0.0164,0.0145,0.0136,0.0219,0.0218,0.0217,0.0163,0,0.0117,0.0099,0.0127,0.0103,0.0098,0.0137,0.0127,0.0139,0.0155,0.0153,0.0171,0.0168,0.0199,0.0201,0.0192,0.0209,0.0184,0.0214,0.021,0.0209,0.0203,0.0127,0.0107,0.0055,0.0156,0.0155,0.0154,0,0.0047,0.0054,0.0029,0.0052,0.0051,0.0041,0.0049,0.0047,0.0061,0.0074,0.0079,0.0105,0.0096,0.0128,0.0115,0.0136,0.0136,0.0145,0.0144,0.0142,0.0177,0.0122,0.0039,0.003,0.0144,0.0145,0.0146,0,-0.0023,-0.002,-0.0035,-0.003,-0.0003,-0.0011,-0.0,0.0016,0.0017,0.0024,0.0026,0.0031,0.0034,0.0038,0.0064,0.0085,0.0048,0.0083,0.0058,0.0057,0.0046,0.0046,-0.0041,0.0049,0.0049,0.0049,0.005,0,-0.0091,-0.0108,-0.0066,-0.0075,-0.0093,-0.0059,-0.0078,-0.0063,-0.0048,-0.0054,-0.0019,-0.0025,0.0011,0.001,0.0031,0.0017,0.0018,0.0028,0.0033,0.0023,0.0022,0.0022,0.0026,0.0047,0.0048,0.0048,0.0049,0,-0.0174,-0.0146,-0.0159,-0.0132,-0.0125,-0.014,-0.0116,-0.0124,-0.0104,-0.0112,-0.0111,-0.0081,-0.0081,-0.0053,-0.0048,-0.0034,-0.0057,-0.0044,-0.0062,-0.0059,-0.0086,-0.0085,-0.0177,-0.0188,-0.009,-0.0091,-0.0091,0,-0.022,-0.0232,-0.0206,-0.0206,-0.0197,-0.0199,-0.0197,-0.0163,-0.0162,-0.0146,-0.0155,-0.0152,-0.0148,-0.015,-0.0128,-0.0123,-0.0111,-0.0143,-0.011,-0.0119,-0.0113,-0.0114,-0.0115,-0.0151,-0.0153,-0.0154,-0.0154,0,-0.0306,-0.0291,-0.0289,-0.0281,-0.0279,-0.0272,-0.0263,-0.0265,-0.0228,-0.0229,-0.0228,-0.0225,-0.0218,-0.0216,-0.0207,-0.0196,-0.017,-0.0164,-0.017,-0.0182,-0.0192,-0.0188,-0.0083,-0.0163,-0.0162,-0.0162,-0.0161,-0.0161,-0.0373,-0.0382,-0.0364,-0.0362,-0.0351,-0.0343,-0.0348,-0.0328,-0.0327,-0.0319,-0.0298,-0.0301,-0.0285,-0.027,-0.026,-0.0262,-0.0246,-0.0254,-0.0256,-0.0259,-0.0265,-0.019,-0.026,-0.0259,-0.0259,-0.0259,-0.0259,0,-0.0458,-0.0444,-0.0443,-0.043,-0.0429,-0.0401,-0.0389,-0.039,-0.0392,-0.0379,-0.0375,-0.0374,-0.0371,-0.0347,-0.0341,-0.0347,-0.0335,-0.0347,-0.0347,-0.0345,-0.0279,-0.0276,-0.0357,-0.0357,-0.0357,-0.0357,-0.0357,-0.0357,-0.0503,-0.0516,-0.0499,-0.0506,-0.0491,-0.0493,-0.0488,-0.048,-0.0469,-0.0469,-0.0466,-0.045,-0.0432,-0.0424,-0.042,-0.0413,-0.0413,-0.043,-0.0419,-0.0359,-0.035,-0.0341,-0.0337,-0.043,-0.043,-0.0485,-0.0485,-0.0485]},{"header":{"parameterUnit":"m.s-1","parameterCategory":1,"la1":30.2991,"la2":30.254,"lo1":-89.0895,"lo2":-89.0444,"dy":0.0017,"dx":0.0017,"nx":28,"ny":28,"refTime":"2025-04-10T21:00:00:Z","depth":0,"parameterNumber":3,"parameterNumberName":"V-component_of_WINDS"},"data":[0,0,0,0,0,0,0,0,0,0,0,0,0,0,0,0,0,0,0,0,0,0,0,0,0,0,0,0,0,0,0,0,0,0,0,0,0,0,0,0,0,0,0,0,0,0,0,0,0,0,0,0,0,0,0,0,0,0,-5.3277,-5.3278,0,-5.3388,-5.3389,-5.3391,-5.3292,-5.3288,-5.3284,-5.328,-5.3392,-5.3398,-5.3405,0,0,0,0,0,0,0,0,0,0,0,0,0,-5.2977,-5.2983,-5.3277,-5.3278,-5.328,-5.3388,-5.339,-5.3391,-5.3292,-5.3287,-5.3282,-5.3278,-5.3389,-5.3397,-5.3405,0,0,0,0,0,0,0,0,0,0,0,0,0,-5.31,-5.2985,-5.3277,-5.3244,-5.3242,-5.3388,-5.339,-5.3391,-5.3293,-5.3287,-5.3281,-5.3276,-5.3387,-5.3396,-5.3406,-5.359,0,0,-5.3437,-5.3442,0,0,0,0,0,0,0,0,-5.3093,-5.3111,-5.3247,-5.3246,-5.3244,-5.332,-5.3325,-5.3458,-5.3295,-5.3274,-5.328,-5.3273,-5.3372,-5.3383,-5.3417,-5.3595,-5.36,-5.3438,-5.3444,-5.3449,-5.3452,0,0,0,0,0,0,0,-5.3085,-5.3106,-5.3321,-5.3249,-5.3248,-5.3223,-5.3233,-5.335,-5.3356,-5.3275,-5.3268,-5.3283,-5.337,-5.3408,-5.3419,-5.3602,-5.3438,-5.3447,-5.3453,-5.3457,-5.3936,-5.3942,0,0,0,0,0,0,-5.308,-5.3099,-5.3317,-5.3324,-5.3152,-5.3233,-5.3245,-5.3302,-5.3354,-5.3356,-5.3288,-5.3278,-5.3394,-5.3408,-5.3423,-5.3642,-5.3449,-5.3458,-5.3464,-5.393,-5.3938,-5.3945,0,0,0,0,0,0,-5.3074,-5.31,-5.3313,-5.321,-5.3235,-5.3245,-5.3309,-5.3307,-5.3344,-5.3364,-5.3364,-5.3325,-5.3389,-5.3409,-5.355,-5.3645,-5.3463,-5.3472,-5.3922,-5.3932,-5.3941,-5.4082,0,0,0,0,0,0,-5.3066,-5.3099,-5.3169,-5.3212,-5.3241,-5.3439,-5.3315,-5.3314,-5.3362,-5.335,-5.3399,-5.3401,-5.3386,-5.3535,-5.356,-5.3655,-5.348,-5.3913,-5.3926,-5.3938,-5.4069,-5.4096,-5.4118,0,0,0,0,0,-5.3055,-5.3204,-5.3174,-5.32,-5.333,-5.3445,-5.3461,-5.3441,-5.3371,-5.3441,-5.3454,-5.34,-5.363,-5.355,-5.3577,-5.3677,-5.3907,-5.3923,-5.3937,-5.4058,-5.409,-5.4118,0,0,0,0,0,0,-5.3172,-5.3209,-5.3176,-5.3343,-5.3392,-5.3428,-5.3516,-5.3476,-5.3545,-5.3531,-5.3503,-5.3515,-5.3664,-5.3684,-5.3595,-5.3858,-5.3757,-5.3778,-5.384,-5.3871,-5.3895,-5.3887,-5.3488,0,0,0,0,0,-5.3217,-5.3308,-5.3335,-5.348,-5.3506,-5.3508,-5.3557,-5.3537,-5.3586,-5.3606,-5.3629,-5.3678,-5.3761,-5.3816,-5.3894,-5.4071,-5.408,-5.4153,-5.4177,-5.4197,-5.4216,-5.4312,-5.4345,-5.3994,-5.3994,-5.3994,0,0,-5.3311,-5.3343,-5.3402,-5.3504,-5.3539,-5.3634,-5.3525,-5.363,-5.37,-5.3622,-5.3757,-5.3775,-5.3827,-5.3988,-5.4059,-5.4009,-5.4315,-5.4216,-5.4232,-5.4241,-5.4331,-5.4364,-5.4393,-5.4004,-5.4002,-5.4001,0,0,-5.3531,-5.3564,-5.3689,-5.3726,-5.3781,-5.3781,-5.3811,-5.3854,-5.3863,-5.3998,-5.3942,-5.4024,-5.4168,-5.4208,-5.4247,-5.4482,-5.4435,-5.4508,-5.4638,-5.4731,-5.4758,-5.4783,-5.4868,-5.4898,-5.4526,-5.4527,-5.4527,0,-5.3641,-5.3782,-5.3758,-5.3867,-5.3914,-5.3848,-5.3973,-5.4011,-5.4089,-5.4122,-5.4065,-5.4245,-5.4275,-5.4444,-5.4501,-5.4535,-5.4568,-5.4503,-5.4756,-5.4781,-5.4803,-5.4884,-5.4915,-5.4535,-5.4534,-5.4533,-5.4533,0,-5.3915,-5.4014,-5.4107,-5.4185,-5.4242,-5.4359,-5.4352,-5.4412,-5.4387,-5.4393,-5.4531,-5.4566,-5.4649,-5.4687,-5.4664,-5.4853,-5.482,-5.4761,-5.4659,-5.4846,-5.4921,-5.4951,-5.4548,-5.4544,-5.4542,-5.454,0,0,-5.4213,-5.4275,-5.431,-5.4345,-5.4401,-5.4476,-5.4589,-5.4672,-5.4725,-5.478,-5.4874,-5.4998,-5.4943,-5.4987,-5.4967,-5.5049,-5.5234,-5.4979,-5.498,-5.5026,-5.5445,-5.5491,-5.5527,-5.5202,-5.5208,-5.5213,-5.5441,0,-5.4436,-5.4635,-5.4616,-5.4804,-5.4895,-5.4833,-5.4932,-5.4977,-5.4985,-5.5062,-5.507,-5.5159,-5.5079,-5.5105,-5.5183,-5.5195,-5.5318,-5.5178,-5.529,-5.5295,-5.5281,-5.5566,-5.5616,-5.583,-5.547,-5.5475,-5.5479,0,-5.4724,-5.4791,-5.4989,-5.503,-5.5068,-5.5157,-5.5231,-5.5306,-5.5355,-5.5355,-5.5405,-5.5371,-5.5484,-5.5379,-5.5535,-5.5441,-5.5485,-5.5498,-5.5505,-5.5516,-5.5399,-5.5587,-5.5897,-5.593,-5.5525,-5.5521,-5.5518,0,-5.4924,-5.5062,-5.5198,-5.523,-5.5282,-5.5346,-5.5371,-5.5413,-5.5464,-5.5528,-5.5561,-5.5637,-5.568,-5.5739,-5.5726,-5.5651,-5.5886,-5.5779,-5.5889,-5.589,-5.5943,-5.594,-5.6267,-5.5969,-5.5969,-5.5968,-5.5968,0,-5.5176,-5.53,-5.5289,-5.5373,-5.551,-5.5486,-5.5621,-5.5638,-5.5676,-5.5762,-5.5712,-5.5794,-5.5771,-5.5851,-5.5841,-5.5973,-5.5991,-5.5995,-5.5991,-5.6,-5.6,-5.603,-5.6016,-5.5977,-5.5975,-5.5973,-5.5972,0,-5.5423,-5.542,-5.5565,-5.5602,-5.5615,-5.5714,-5.5745,-5.5824,-5.5828,-5.5937,-5.5961,-5.5967,-5.6058,-5.6051,-5.6154,-5.6147,-5.631,-5.6288,-5.6294,-5.629,-5.6401,-5.6391,-5.676,-5.6807,-5.6477,-5.6481,-5.6483,0,-5.5585,-5.5679,-5.5727,-5.5781,-5.581,-5.5898,-5.595,-5.5929,-5.5985,-5.6048,-5.6119,-5.6206,-5.6276,-5.6425,-5.6438,-5.6516,-5.6496,-5.662,-5.6508,-5.6514,-5.65,-5.6495,-5.6505,-5.6643,-5.6646,-5.6649,-5.6652,0,-5.5874,-5.5868,-5.5945,-5.6022,-5.6086,-5.6145,-5.6199,-5.6246,-5.6231,-5.6296,-5.639,-5.6443,-5.6549,-5.6636,-5.6711,-5.6734,-5.6692,-5.6687,-5.6716,-5.6728,-5.6729,-5.6731,-5.6356,-5.6679,-5.6676,-5.6674,-5.6673,-5.6671,-5.6084,-5.6165,-5.6212,-5.6299,-5.6338,-5.6389,-5.6466,-5.6479,-5.6557,-5.6642,-5.6624,-5.673,-5.6775,-5.6871,-5.6902,-5.6984,-5.694,-5.6982,-5.6994,-5.7005,-5.7019,-5.6714,-5.6997,-5.6996,-5.6996,-5.6995,-5.6994,0,-5.6372,-5.6398,-5.6479,-5.6557,-5.6626,-5.6578,-5.6636,-5.6696,-5.679,-5.6837,-5.6906,-5.7013,-5.7098,-5.7117,-5.7198,-5.7259,-5.7242,-5.7281,-5.7277,-5.7284,-5.7053,-5.702,-5.7295,-5.7294,-5.7294,-5.7294,-5.7294,-5.7294,-5.653,-5.6665,-5.6664,-5.6817,-5.6842,-5.6946,-5.6983,-5.703,-5.7067,-5.719,-5.726,-5.7272,-5.7308,-5.739,-5.7466,-5.7469,-5.7501,-5.755,-5.7545,-5.733,-5.73,-5.7271,-5.724,-5.7556,-5.7557,-5.7769,-5.7771,-5.7773]}]]